Showing default

HIMAWARI 8, 40267

Orbit data source: Space-Track

HIMAWARI 8, 40267 is a payload satellite owned by JMA (JP) in GEO that was launched on Tue, 07 Oct 2014 UTC via an H-IIA 202 launch vehicle from the Tanegashima Space Center (TNSTA). Payload-class satellites include a variety of spacecraft equipped with specific instruments for various scientific and technological missions. These include communications satellites like Starlink; space stations such as the ISS; scientific satellites like the Hubble; Earth observation satellites from companies like Planet Labs, Umbra, and HawkEye 360; GPS; miniature CubeSats for education and research; and military/defense satellites.

Not visible in the next 10 days
Identifier
40267, 2014-060A
Orbit
GEO
Country
Flag of JPJP / JPN
Related business
Manufacturer
MELCO
Mission
Operational Civil Weather
Bus & Motor
DS-2000, R-4D
Mass
3,500 kg wet, 1,300 kg dry
Launch date (UTC)
2014-10-07 (12 years ago)
Launch vehicle
H-IIA 202
Launch site
Tanegashima Space Center (TNSTA)
Object type
Payload
Rocket body
Debris
Shape & HBR
Box + 1 Pan + 1 Rod, 15.0 m
Radar Cross Section
63.551 m², Large (>1 m²)

Expand to show TLE details & history
Last TLE update: 2 days ago

TLE from 2 days ago
0 HIMAWARI 8
1 40267U 14060A   26171.46088416 -.00000280  00000-0  00000+0 0  9994
2 40267   0.0187  51.4118 0001168  42.2924 121.5465  1.00270806 42796
Epoch: 2026-06-20T11:03Z
TLE epoch observation values (Epoch: 2026-06-20T11:03:40.391Z)
Latitude
-0.00175°
Longitude
140.68092°
Altitude
35,788.952 km
Speed
3.075 km/s
True Right ascension
14h 21m 05s
True Declination
0° 00' 06"
Sunlit
Object was in daylight at epoch
Visualization orbit readout
Latitude
Unknown
Longitude
Unknown
Altitude
Unknown
Speed
Unknown
Apparent Right ascension
Unknown
Apparent Declination
Unknown
Sunlit
N/A
Visualization observer readout
Local Sidereal Time
02:13:10
Azimuth
Unknown
Elevation
Unknown
Doppler factor
Unknown
Orbital elements
Apogee altitude
35,792.865 km
Perigee altitude
35,783.015 km
Semi-major axis
42,166.077 km
Eccentricity
0.00012
Inclination
0.0187°
RAAN
51.4118°
Arg. of periapsis
42.2924°
True anomaly
121.55791°
Mean anomaly
121.5465°
Eccentric anomaly
121.5522°
Mean motion
0.25067 °/min
Orbital period
1,436.16 mins
BSTAR
0
Loading maneuver chart data...
Computing Atmospheric mass density...
Loading historical data...
Loading historical data...
Loading historical data...
Loading historical data...
Loading historical data...
Loading historical data...
Loading historical data...
Other satellites on launch #60 in the year 2014 (2014-10-07 UTC)

Documentation

Showing up to 5 results
|